When you browse on this site, cookies collect data to enhance your experience and personalize the content and advertising you see.
Visit our Privacy Policy to learn more. By continuing to use the site, you agree to this use of cookies and data.
  • In France
  • List of Countries
  • For 7 days
  • Water Temperature
  • Weather Map
  • Weather Widgets
  • user-avatar
    Login

    Hourly Weather Fleet

    Today, 19 August, Monday

    Time Temperature Precipitation Wind Pressure Humidity
    00:00 +12°C° 0 mm 5 mps 750 mmHg 89%
    01:00 +12°C° 0 mm 5 mps 750 mmHg 89%
    02:00 +12°C° 0 mm 5 mps 750 mmHg 88%
    03:00 +10°C° 0 mm 5 mps 750 mmHg 88%
    04:00 +12°C° 0 mm 5 mps 750 mmHg 88%
    05:00 +12°C° 0 mm 4 mps 751 mmHg 87%
    06:00 +12°C° 0 mm 4 mps 751 mmHg 87%
    07:00 +13°C° 0 mm 5 mps 751 mmHg 83%
    08:00 +15°C° 0 mm 5 mps 752 mmHg 78%
    09:00 +17°C° 0 mm 6 mps 752 mmHg 74%
    10:00 +17°C° 0.2 mm 5 mps 753 mmHg 70%
    11:00 +19°C° 0.2 mm 5 mps 753 mmHg 66%
    12:00 +20°C° 0.2 mm 5 mps 753 mmHg 63%
    13:00 +20°C° 0.5 mm 6 mps 753 mmHg 63%
    14:00 +20°C° 0.5 mm 6 mps 753 mmHg 63%
    15:00 +20°C° 0.5 mm 6 mps 754 mmHg 64%
    16:00 +19°C° 0.1 mm 6 mps 754 mmHg 65%
    17:00 +17°C° 0.1 mm 5 mps 754 mmHg 66%
    18:00 +16°C° 0.1 mm 5 mps 754 mmHg 68%
    19:00 +15°C° 0 mm 4 mps 755 mmHg 72%
    20:00 +13°C° 0 mm 4 mps 755 mmHg 76%
    21:00 +12°C° 0 mm 3 mps 756 mmHg 80%
    22:00 +12°C° 0 mm 3 mps 756 mmHg 84%
    23:00 +11°C° 0 mm 3 mps 756 mmHg 87%

    Tomorrow, 20 August, Tuesday

    Time Temperature Precipitation Wind Pressure Humidity
    00:00 +11°C° 0 mm 3 mps 756 mmHg 91%
    01:00 +10°C° 0 mm 3 mps 756 mmHg 91%
    02:00 +10°C° 0 mm 3 mps 756 mmHg 92%
    03:00 +10°C° 0 mm 3 mps 757 mmHg 93%
    04:00 +10°C° 0 mm 2 mps 757 mmHg 93%
    05:00 +10°C° 0 mm 2 mps 757 mmHg 92%
    06:00 +10°C° 0 mm 2 mps 757 mmHg 91%
    07:00 +12°C° 0 mm 3 mps 758 mmHg 84%
    08:00 +14°C° 0 mm 3 mps 758 mmHg 77%
    09:00 +15°C° 0 mm 4 mps 759 mmHg 69%
    10:00 +17°C° 0 mm 4 mps 759 mmHg 64%
    11:00 +18°C° 0 mm 4 mps 759 mmHg 60%
    12:00 +17°C° 0 mm 5 mps 760 mmHg 55%
    13:00 +19°C° 0 mm 5 mps 760 mmHg 55%
    14:00 +19°C° 0 mm 5 mps 760 mmHg 55%
    15:00 +19°C° 0 mm 5 mps 760 mmHg 55%
    16:00 +19°C° 0 mm 4 mps 760 mmHg 59%
    17:00 +18°C° 0 mm 3 mps 760 mmHg 64%
    18:00 +18°C° 0 mm 3 mps 761 mmHg 69%
    19:00 +16°C° 0 mm 2 mps 761 mmHg 74%
    20:00 +15°C° 0 mm 2 mps 761 mmHg 80%
    21:00 +13°C° 0 mm 2 mps 762 mmHg 85%
    22:00 +13°C° 0 mm 2 mps 761 mmHg 87%
    23:00 +13°C° 0 mm 1 mps 761 mmHg 88%

    Day after tomorrow, 21 August, Wednesday

    Time Temperature Precipitation Wind Pressure Humidity
    00:00 +13°C° 0 mm 1 mps 761 mmHg 90%
    01:00 +12°C° 0 mm 1 mps 761 mmHg 90%
    02:00 +12°C° 0 mm 1 mps 761 mmHg 91%
    03:00 +12°C° 0 mm 1 mps 761 mmHg 91%
    04:00 +12°C° 0 mm 1 mps 761 mmHg 90%
    05:00 +12°C° 0 mm 1 mps 761 mmHg 89%
    06:00 +13°C° 0 mm 1 mps 761 mmHg 88%
    07:00 +14°C° 0 mm 2 mps 761 mmHg 83%
    08:00 +16°C° 0 mm 2 mps 761 mmHg 78%
    09:00 +18°C° 0 mm 3 mps 761 mmHg 72%
    10:00 +18°C° 0.1 mm 3 mps 761 mmHg 69%
    11:00 +19°C° 0.1 mm 4 mps 761 mmHg 65%
    12:00 +20°C° 0.1 mm 4 mps 760 mmHg 61%
    13:00 +20°C° 0 mm 5 mps 760 mmHg 60%
    14:00 +20°C° 0 mm 5 mps 760 mmHg 59%
    15:00 +20°C° 0 mm 5 mps 760 mmHg 58%
    16:00 +19°C° 0 mm 5 mps 760 mmHg 62%
    17:00 +18°C° 0 mm 4 mps 759 mmHg 66%
    18:00 +17°C° 0 mm 4 mps 759 mmHg 70%
    19:00 +16°C° 0 mm 3 mps 759 mmHg 74%
    20:00 +14°C° 0 mm 3 mps 759 mmHg 79%
    21:00 +12°C° 0 mm 3 mps 759 mmHg 84%
    22:00 +12°C° 0 mm 3 mps 759 mmHg 85%
    23:00 +12°C° 0 mm 3 mps 759 mmHg 86%

    22 August, Thursday

    Time Temperature Precipitation Wind Pressure Humidity
    00:00 +12°C° 0 mm 3 mps 759 mmHg 87%
    01:00 +12°C° 0 mm 3 mps 759 mmHg 88%
    02:00 +12°C° 0 mm 3 mps 758 mmHg 89%
    03:00 +12°C° 0 mm 3 mps 758 mmHg 90%
    04:00 +13°C° 0 mm 3 mps 758 mmHg 90%
    05:00 +13°C° 0 mm 4 mps 759 mmHg 89%
    06:00 +14°C° 0 mm 4 mps 759 mmHg 88%
    07:00 +15°C° 0 mm 4 mps 759 mmHg 86%
    08:00 +17°C° 0 mm 4 mps 759 mmHg 84%
    09:00 +17°C° 0 mm 4 mps 760 mmHg 81%
    10:00 +19°C° 0.1 mm 4 mps 760 mmHg 75%
    11:00 +20°C° 0.1 mm 5 mps 760 mmHg 69%
    12:00 +21°C° 0.1 mm 5 mps 760 mmHg 62%
    13:00 +22°C° 0 mm 5 mps 760 mmHg 60%
    14:00 +22°C° 0 mm 4 mps 760 mmHg 57%
    15:00 +22°C° 0 mm 4 mps 760 mmHg 55%
    16:00 +21°C° 0 mm 4 mps 760 mmHg 60%
    17:00 +21°C° 0 mm 3 mps 760 mmHg 65%
    18:00 +20°C° 0 mm 3 mps 760 mmHg 70%
    19:00 +18°C° 0 mm 3 mps 760 mmHg 77%
    20:00 +17°C° 0 mm 3 mps 760 mmHg 83%
    21:00 +15°C° 0 mm 2 mps 760 mmHg 90%
    22:00 +15°C° 0 mm 2 mps 760 mmHg 91%
    23:00 +15°C° 0 mm 2 mps 760 mmHg 93%

    23 August, Friday

    Time Temperature Precipitation Wind Pressure Humidity
    00:00 +15°C° 0 mm 2 mps 760 mmHg 94%
    01:00 +14°C° 0 mm 1 mps 759 mmHg 94%
    02:00 +14°C° 0 mm 1 mps 759 mmHg 95%
    03:00 +14°C° 0 mm 1 mps 759 mmHg 95%
    04:00 +14°C° 0 mm 1 mps 759 mmHg 95%
    05:00 +14°C° 0 mm 1 mps 759 mmHg 95%
    06:00 +15°C° 0 mm 2 mps 759 mmHg 95%
    07:00 +16°C° 0 mm 2 mps 759 mmHg 89%
    08:00 +18°C° 0 mm 2 mps 759 mmHg 82%
    09:00 +20°C° 0 mm 3 mps 759 mmHg 75%
    10:00 +21°C° 0 mm 3 mps 759 mmHg 69%
    11:00 +22°C° 0 mm 3 mps 759 mmHg 63%
    12:00 +24°C° 0 mm 3 mps 759 mmHg 57%
    13:00 +24°C° 0 mm 3 mps 758 mmHg 56%
    14:00 +25°C° 0 mm 3 mps 758 mmHg 56%
    15:00 +25°C° 0 mm 3 mps 757 mmHg 55%
    16:00 +24°C° 0 mm 2 mps 757 mmHg 59%
    17:00 +23°C° 0 mm 2 mps 757 mmHg 63%
    18:00 +21°C° 0 mm 2 mps 757 mmHg 67%
    19:00 +21°C° 0 mm 1 mps 757 mmHg 71%
    20:00 +19°C° 0 mm 1 mps 757 mmHg 75%
    21:00 +16°C° 0 mm 1 mps 757 mmHg 79%
    22:00 +16°C° 0 mm 1 mps 757 mmHg 79%
    23:00 +16°C° 0 mm 1 mps 756 mmHg 79%

    24 August, Saturday

    Time Temperature Precipitation Wind Pressure Humidity
    00:00 +14°C° 0 mm 0 mps 756 mmHg 79%
    01:00 +14°C° 0 mm 0 mps 756 mmHg 79%
    02:00 +15°C° 0 mm 1 mps 755 mmHg 79%
    03:00 +14°C° 0 mm 1 mps 755 mmHg 79%
    04:00 +15°C° 0 mm 1 mps 755 mmHg 78%
    05:00 +15°C° 0 mm 1 mps 755 mmHg 77%
    06:00 +15°C° 0 mm 1 mps 755 mmHg 76%
    07:00 +18°C° 0 mm 1 mps 755 mmHg 70%
    08:00 +19°C° 0 mm 2 mps 755 mmHg 64%
    09:00 +21°C° 0 mm 2 mps 755 mmHg 59%
    10:00 +24°C° 0 mm 2 mps 754 mmHg 54%
    11:00 +25°C° 0 mm 2 mps 754 mmHg 50%
    12:00 +26°C° 0 mm 3 mps 754 mmHg 46%
    13:00 +27°C° 0 mm 3 mps 754 mmHg 45%
    14:00 +27°C° 0 mm 3 mps 753 mmHg 44%
    15:00 +27°C° 0 mm 3 mps 753 mmHg 44%
    16:00 +26°C° 0 mm 3 mps 753 mmHg 50%
    17:00 +24°C° 0 mm 2 mps 753 mmHg 57%
    18:00 +23°C° 0 mm 2 mps 753 mmHg 63%
    19:00 +21°C° 0 mm 2 mps 753 mmHg 65%
    20:00 +19°C° 0 mm 2 mps 752 mmHg 67%
    21:00 +19°C° 0 mm 1 mps 752 mmHg 68%
    22:00 +19°C° 0 mm 1 mps 752 mmHg 69%
    23:00 +18°C° 0 mm 1 mps 752 mmHg 71%
    Show more